SCOUT A DEB, 2778

Orbit data source: Space-Track

SCOUT A DEB, 2778 is space debris in LEO originally from a launch on Fri, 14 Apr 1967 UTC launched from the Air Force Western Test Range (AFWTR). Debris objects in space refer to the collection of defunct objects orbiting the Earth. Examples of debris include non-operational satellites, rocket bodies, and fragments generated from explosions, collisions, or faulty payload assembly.

Loading next visibility...
Identifier
2778, 1967-034D
Orbit
LEO
Country
Flag of USUS
Related business
Manufacturer
Unknown
Mission
Spacecraft
Bus & Motor
Unknown
Mass
Unknown
Launch date (UTC)
1967-04-14 (59 years ago)
Launch vehicle
Unknown
Launch site
Air Force Western Test Range (AFWTR)
Object type
Payload
Rocket body
Debris
Shape & HBR
Unknown shape, 0.1 m
Radar Cross Section
Small (<0.1 m²)

Expand to show TLE details & history
Last TLE update: 2 days ago

TLE from 2 days ago
0 SCOUT A DEB
1  2778U 67034D   26033.23623808  .00000306  00000-0  56235-3 0  9993
2  2778  89.8431  39.5212 0123772  16.3458 104.1797 13.35231619855146
Epoch: 2026-02-02T05:40Z
TLE epoch observation values (Epoch: 2026-02-02T05:40:10.970Z)
Latitude
58.19507°
Longitude
1.78935°
Altitude
1,160.82 km
Speed
7.267 km/s
True Right ascension
14h 37m 04s
True Declination
58° 02' 57"
Sunlit
Object was in daylight at epoch
Visualization orbit readout
Latitude
Unknown
Longitude
Unknown
Altitude
Unknown
Speed
Unknown
Apparent Right ascension
Unknown
Apparent Declination
Unknown
Sunlit
N/A
Visualization observer readout
Local Sidereal Time
10:08:06
Azimuth
Unknown
Elevation
Unknown
Doppler factor
Unknown
Orbital elements
Apogee altitude
1,217.023 km
Perigee altitude
1,031.308 km
Semi-major axis
7,502.302 km
Eccentricity
0.01238
Inclination
89.8431°
RAAN
39.5212°
Arg. of periapsis
16.3458°
True anomaly
105.54949°
Mean anomaly
104.1797°
Eccentric anomaly
104.86513°
Mean motion
3.34004 °/min
Orbital period
107.78 mins
BSTAR
0.00056235
Loading maneuver chart data...
Computing Atmospheric mass density...
Loading historical data...
Loading historical data...
Loading historical data...
Loading historical data...
Loading historical data...
Loading historical data...
Loading historical data...

Documentation

Showing up to 5 results
|